Dewpoint
54 53 52 52 51 50 50 50 48 47 51 52 54 58 58 58 58 58 58 55 57 58 59 59 59 59 60 60 60 60 59 60 60 59 58 56 55 54
56 55 53 52 51 51 50 50 49 47 46 51 53 54 58 57 57 58 58 54 55 57 57 57 57 57 58 58 59 59 59 59 59 60 60 58 57 55
56 55 54 53 52 51 51 50 49 48 46 48 51 53 55 57 57 56 57 57 57 55 57 57 56 56 57 57 57 57 58 58 58 59 59 59 59 59
56 55 54 54 55 53 52 50 50 49 48 47 49 49 53 55 56 56 57 56 57 54 55 56 56 56 56 56 55 56 56 56 56 57 58 58 58 59
56 55 55 55 55 54 53 51 50 50 49 49 47 47 49 51 53 53 55 56 56 53 55 55 56 55 55 55 55 54 54 54 54 54 55 56 57 58
53 56 56 55 55 54 54 53 51 50 49 48 46 46 47 46 50 51 50 52 53 53 53 53 54 54 55 55 54 53 52 52 53 54 54 53 53 55
49 57 56 55 52 54 54 53 52 50 49 48 47 45 45 44 49 47 49 48 50 51 52 52 53 53 53 54 52 51 51 52 52 53 53 53 53 53
47 56 56 51 51 52 51 51 52 51 50 48 48 46 46 47 47 48 48 45 46 49 51 51 52 52 52 53 52 52 51 51 52 52 52 52 52 52
49 51 56 55 53 54 51 51 51 50 50 50 49 48 48 47 47 47 48 46 46 47 48 48 45 49 49 48 50 50 50 50 50 50 50 49 50 50
47 53 54 55 54 54 54 52 52 52 51 51 51 50 50 50 48 48 48 47 45 45 45 43 42 44 45 46 48 48 49 49 48 48 48 49 49 49
44 50 53 54 52 51 53 52 52 52 51 49 49 49 48 49 50 50 47 47 44 44 45 44 41 41 40 41 41 46 46 46 47 48 48 48 48 49
45 50 48 52 51 50 53 53 52 52 52 52 51 50 49 50 49 51 49 48 42 40 41 44 38 39 36 36 36 37 41 43 44 45 47 48 48 46
48 51 52 50 50 50 51 53 53 53 52 52 52 52 51 51 51 52 51 50 43 42 43 42 35 34 34 35 32 33 34 36 39 41 44 47 47 46
49 51 53 50 49 49 50 52 50 50 53 52 51 51 50 50 50 51 50 49 47 46 44 40 35 36 35 32 36 33 32 35 36 37 38 42 47 47
50 49 51 49 48 49 49 50 49 52 52 50 49 48 48 49 45 38 37 37 35 37 41 39 37 37 36 35 35 33 32 33 34 35 36 36 38 39
47 49 50 49 50 51 50 50 52 52 51 49 47 46 40 40 41 38 35 35 34 32 33 36 37 38 35 35 35 33 33 34 32 33 34 34 35 35
48 48 50 49 49 50 50 50 51 51 48 48 43 40 40 39 35 35 34 34 34 33 31 31 33 34 34 34 33 34 33 33 32 32 31 31 32 33
39 40 46 47 47 48 48 48 49 47 47 43 43 41 39 38 36 34 33 35 35 34 31 30 32 32 32 32 34 33 32 32 31 30 30 31 30 31
34 34 32 33 34 38 45 44 36 41 41 42 41 40 39 37 36 35 35 35 33 33 32 31 32 33 32 32 29 32 30 29 29 28 29 29 29 26
25 27 29 31 32 32 33 33 33 34 35 35 36 36 36 35 34 34 34 35 33 29 29 30 33 33 33 33 28 25 31 28 28 27 27 27 26 25
23 24 25 27 28 30 31 32 33 32 33 33 33 33 33 34 33 33 33 34 33 30 29 29 31 32 30 31 27 23 24 30 28 25 22 21 21 21
23 23 24 25 26 27 28 29 30 31 31 32 32 32 32 33 32 32 32 31 30 29 27 27 29 29 28 28 24 23 23 24 27 28 26 24 20 18
23 24 24 24 25 27 27 27 28 28 29 30 30 31 31 30 31 31 29 28 27 26 25 24 25 25 23 25 23 21 20 20 21 21 21 23 22 23
Lifted_Index
1 1 2 2 2 2 2 3 4 5 5 4 3 3 3 3 3 3 4 4 4 4 5 5 5 5 5 5 5 5 5 5 5 5 5 6 6 7
1 1 1 2 2 2 2 3 4 5 5 5 4 3 3 3 3 3 3 4 4 4 4 4 5 5 5 5 5 5 5 5 5 5 5 5 6 6
2 2 1 1 2 2 2 2 3 4 4 4 4 4 4 4 3 3 3 3 4 4 4 4 4 5 5 5 5 5 5 5 5 4 4 4 5 5
2 2 2 1 1 2 2 2 3 3 4 3 3 4 4 4 4 4 4 4 4 4 4 4 4 5 5 5 5 5 5 5 5 5 5 4 4 4
2 2 2 2 1 2 2 2 3 3 3 3 3 3 4 4 4 4 5 4 4 4 4 4 5 5 5 5 5 5 5 6 6 6 5 5 5 5
3 2 2 2 2 2 2 2 3 3 3 3 3 3 4 4 5 5 6 5 5 5 5 5 6 6 5 5 5 6 6 6 6 6 6 6 6 6
4 2 1 2 2 2 2 2 2 3 3 3 3 4 4 5 5 5 6 6 6 6 6 7 7 7 6 6 6 6 6 6 6 6 6 6 7 7
5 3 1 1 1 1 2 2 2 2 2 3 4 4 4 5 5 5 6 6 6 6 7 7 7 7 6 6 6 6 6 6 6 6 6 6 7 7
6 4 2 1 1 1 1 1 1 1 2 3 4 5 4 4 4 5 5 6 6 6 6 6 6 6 5 5 5 5 5 5 5 5 6 6 7 7
7 4 2 2 1 1 1 1 1 1 2 3 5 5 4 4 4 4 5 5 6 6 5 5 5 5 4 4 5 5 5 5 6 6 6 6 7 7
8 5 3 2 2 2 2 2 1 1 2 3 4 4 4 4 4 4 4 5 5 5 4 4 4 4 4 4 5 5 6 6 6 6 6 7 7 8
7 5 3 3 3 2 2 2 1 1 1 2 2 3 3 4 4 4 4 4 4 4 3 3 4 4 4 5 5 6 6 6 6 6 7 7 8 8
5 4 3 3 3 2 2 2 1 1 1 1 2 2 3 3 3 3 3 3 3 3 3 3 3 4 5 5 5 6 6 6 6 7 7 8 8 8
3 2 2 2 2 2 2 1 1 1 1 1 1 2 2 3 3 2 3 2 2 2 3 3 4 4 5 5 5 6 6 6 7 7 8 8 8 8
3 2 2 2 1 1 1 1 1 1 1 1 1 2 2 2 2 2 2 2 2 3 3 3 4 4 5 5 5 6 6 7 7 7 8 8 8 8
2 2 2 2 2 1 1 1 1 1 1 1 1 1 2 2 2 2 2 3 3 3 3 4 4 5 5 5 6 6 7 7 7 7 8 8 8 8
2 2 2 2 2 2 2 2 2 2 1 1 1 1 1 2 2 2 3 3 3 4 4 4 5 5 5 6 6 7 7 7 8 8 8 8 8 8
1 2 2 3 3 3 2 2 2 2 1 1 1 1 1 2 2 3 3 4 4 4 4 4 5 5 5 6 7 7 8 8 8 8 8 8 8 8
1 2 2 3 3 3 3 2 2 2 1 1 1 1 2 2 3 3 4 4 4 4 4 4 5 5 5 6 7 8 8 8 8 8 8 8 9 9
2 2 2 3 3 3 3 3 2 2 2 2 2 2 3 3 3 4 4 4 4 4 4 5 6 6 6 7 7 8 9 10 9 9 9 9 10 10
5 4 4 4 5 5 4 4 3 3 3 3 3 4 4 4 4 4 4 4 4 4 5 6 7 8 9 8 8 8 10 11 11 11 11 11 10 10
11 10 9 8 8 8 7 6 6 5 5 5 5 5 5 5 5 5 5 5 5 6 7 8 9 10 10 9 9 9 10 12 13 13 13 13 12 12
15 14 13 12 12 12 10 9 8 7 6 6 6 6 6 6 6 6 6 6 6 7 8 9 10 10 10 10 9 9 10 12 13 13 14 15 15 15